contact:dominique.lefevre@mio.osupytheas.fr, maurice.libes@osupytheas.fr, didier.mallarino@osupytheas.fr
Project:EMSO http://www.emso-fr.org/EMSO-France
Depth: 2436.0 m
Title:EMSO Ligure Ouest : Data MII capteur MICROCAT
DateTime_Computer,Latitude,Longitude,Temperature,Conductivity,Pressure,DateTime_Instrument
DateTime_Computer,Latitude,Longitude,degC,S m-1,dbar,DateTime_Instrument
2020-02-08T00:02:58Z,42.805,6.029,13.2964,4.59965,2469.9,2020-2-08T02:03:33Z
2020-02-08T00:06:01Z,42.805,6.029,13.2961,4.59964,2469.923,2020-2-08T02:06:36Z
2020-02-08T00:09:05Z,42.805,6.029,13.2962,4.59965,2469.937,2020-2-08T02:09:39Z
2020-02-08T00:12:08Z,42.805,6.029,13.2962,4.59961,2469.914,2020-2-08T02:12:42Z
2020-02-08T00:15:11Z,42.805,6.029,13.2961,4.59964,2469.923,2020-2-08T02:15:45Z
2020-02-08T00:18:14Z,42.805,6.029,13.2962,4.59962,2469.9,2020-2-08T02:18:49Z
2020-02-08T00:21:17Z,42.805,6.029,13.2961,4.59962,2469.9,2020-2-08T02:21:52Z
2020-02-08T00:24:21Z,42.805,6.029,13.2962,4.59962,2469.914,2020-2-08T02:24:55Z
2020-02-08T00:27:24Z,42.805,6.029,13.2963,4.59962,2469.876,2020-2-08T02:27:58Z
2020-02-08T00:30:27Z,42.805,6.029,13.2962,4.59962,2469.914,2020-2-08T02:31:01Z
2020-02-08T00:33:30Z,42.805,6.029,13.2961,4.59961,2469.923,2020-2-08T02:34:04Z
2020-02-08T00:36:33Z,42.805,6.029,13.2959,4.59964,2469.923,2020-2-08T02:37:08Z
2020-02-08T00:39:37Z,42.805,6.029,13.2963,4.59963,2469.876,2020-2-08T02:40:11Z
2020-02-08T00:42:40Z,42.805,6.029,13.2959,4.59961,2469.9,2020-2-08T02:43:14Z
2020-02-08T00:45:43Z,42.805,6.029,13.2962,4.59961,2469.9,2020-2-08T02:46:17Z
2020-02-08T00:48:46Z,42.805,6.029,13.2960,4.59962,2469.937,2020-2-08T02:49:21Z
2020-02-08T00:51:50Z,42.805,6.029,13.2964,4.59964,2469.96,2020-2-08T02:52:24Z
2020-02-08T00:54:53Z,42.805,6.029,13.2961,4.59964,2469.9,2020-2-08T02:55:27Z
2020-02-08T00:57:56Z,42.805,6.029,13.2963,4.59962,2469.9,2020-2-08T02:58:30Z
2020-02-08T01:00:59Z,42.805,6.029,13.2964,4.59964,2469.9,2020-2-08T03:01:34Z
2020-02-08T01:04:02Z,42.805,6.029,13.2961,4.59964,2469.914,2020-2-08T03:04:37Z
2020-02-08T01:07:06Z,42.805,6.029,13.2963,4.59961,2469.9,2020-2-08T03:07:40Z
2020-02-08T01:10:09Z,42.805,6.029,13.2958,4.59964,2469.89,2020-2-08T03:10:43Z
2020-02-08T01:13:12Z,42.805,6.029,13.2965,4.59966,2469.9,2020-2-08T03:13:46Z
2020-02-08T01:16:15Z,42.805,6.029,13.2957,4.59961,2469.923,2020-2-08T03:16:50Z
2020-02-08T01:19:18Z,42.805,6.029,13.2963,4.59961,2469.9,2020-2-08T03:19:53Z
2020-02-08T01:22:22Z,42.805,6.029,13.2958,4.59965,2469.886,2020-2-08T03:22:56Z
2020-02-08T01:25:25Z,42.805,6.029,13.2962,4.59962,2469.923,2020-2-08T03:25:59Z
2020-02-08T01:28:28Z,42.805,6.029,13.2961,4.59963,2469.909,2020-2-08T03:29:02Z
2020-02-08T01:31:31Z,42.805,6.029,13.2964,4.59963,2469.947,2020-2-08T03:32:05Z
2020-02-08T01:34:34Z,42.805,6.029,13.2961,4.59961,2469.923,2020-2-08T03:35:09Z
2020-02-08T01:37:37Z,42.805,6.029,13.2961,4.59964,2469.923,2020-2-08T03:38:12Z
2020-02-08T01:40:41Z,42.805,6.029,13.2964,4.59962,2469.937,2020-2-08T03:41:15Z
2020-02-08T01:43:44Z,42.805,6.029,13.2960,4.59967,2469.923,2020-2-08T03:44:18Z
2020-02-08T01:46:47Z,42.805,6.029,13.2961,4.59962,2469.923,2020-2-08T03:47:21Z
2020-02-08T01:49:50Z,42.805,6.029,13.2961,4.59964,2469.9,2020-2-08T03:50:25Z
2020-02-08T01:52:53Z,42.805,6.029,13.2966,4.59962,2469.947,2020-2-08T03:53:28Z
2020-02-08T01:55:57Z,42.805,6.029,13.2959,4.59962,2469.923,2020-2-08T03:56:31Z
2020-02-08T01:59:00Z,42.805,6.029,13.2960,4.59964,2469.937,2020-2-08T03:59:34Z
2020-02-08T02:02:03Z,42.805,6.029,13.2962,4.59962,2469.97,2020-2-08T04:02:37Z
2020-02-08T02:05:06Z,42.805,6.029,13.2961,4.59961,2469.947,2020-2-08T04:05:41Z
2020-02-08T02:08:09Z,42.805,6.029,13.2962,4.59962,2469.97,2020-2-08T04:08:44Z
2020-02-08T02:11:13Z,42.805,6.029,13.2961,4.59961,2469.947,2020-2-08T04:11:47Z
2020-02-08T02:14:16Z,42.805,6.029,13.2961,4.59963,2469.96,2020-2-08T04:14:50Z
2020-02-08T02:17:19Z,42.805,6.029,13.2961,4.59963,2469.923,2020-2-08T04:17:53Z
2020-02-08T02:20:22Z,42.805,6.029,13.2963,4.59963,2469.947,2020-2-08T04:20:57Z
2020-02-08T02:23:25Z,42.805,6.029,13.2964,4.59964,2469.947,2020-2-08T04:24:00Z
2020-02-08T02:26:29Z,42.805,6.029,13.2965,4.59964,2469.97,2020-2-08T04:27:03Z
2020-02-08T02:29:32Z,42.805,6.029,13.2958,4.59966,2469.947,2020-2-08T04:30:06Z
2020-02-08T02:32:35Z,42.805,6.029,13.2959,4.59962,2469.96,2020-2-08T04:33:09Z
2020-02-08T02:35:38Z,42.805,6.029,13.2961,4.59963,2469.933,2020-2-08T04:36:13Z
2020-02-08T02:38:41Z,42.805,6.029,13.2963,4.59963,2469.97,2020-2-08T04:39:16Z
2020-02-08T02:41:45Z,42.805,6.029,13.2963,4.59964,2469.97,2020-2-08T04:42:19Z
2020-02-08T02:44:48Z,42.805,6.029,13.2962,4.59961,2469.933,2020-2-08T04:45:22Z
2020-02-08T02:47:51Z,42.805,6.029,13.2962,4.59965,2469.97,2020-2-08T04:48:26Z
2020-02-08T02:50:55Z,42.805,6.029,13.2964,4.59964,2469.97,2020-2-08T04:51:29Z
2020-02-08T02:53:58Z,42.805,6.029,13.2958,4.59961,2469.984,2020-2-08T04:54:32Z
2020-02-08T02:57:01Z,42.805,6.029,13.2959,4.59963,2469.993,2020-2-08T04:57:35Z
2020-02-08T03:00:04Z,42.805,6.029,13.2964,4.59962,2470.007,2020-2-08T05:00:39Z
2020-02-08T03:03:07Z,42.805,6.029,13.2961,4.59962,2469.97,2020-2-08T05:03:42Z
2020-02-08T03:06:11Z,42.805,6.029,13.2965,4.59963,2469.993,2020-2-08T05:06:45Z
2020-02-08T03:09:14Z,42.805,6.029,13.2961,4.59962,2470.017,2020-2-08T05:09:48Z
2020-02-08T03:12:17Z,42.805,6.029,13.2961,4.59963,2469.993,2020-2-08T05:12:51Z
2020-02-08T03:15:20Z,42.805,6.029,13.2961,4.59961,2469.993,2020-2-08T05:15:55Z
2020-02-08T03:18:23Z,42.805,6.029,13.2959,4.59964,2470.03,2020-2-08T05:18:58Z
2020-02-08T03:21:27Z,42.805,6.029,13.2956,4.59964,2470.007,2020-2-08T05:22:01Z
2020-02-08T03:24:30Z,42.805,6.029,13.2958,4.59961,2470.007,2020-2-08T05:25:04Z
2020-02-08T03:27:33Z,42.805,6.029,13.2961,4.59962,2469.993,2020-2-08T05:28:07Z
2020-02-08T03:30:36Z,42.805,6.029,13.2961,4.59964,2469.993,2020-2-08T05:31:10Z
2020-02-08T03:33:39Z,42.805,6.029,13.2958,4.59964,2470.04,2020-2-08T05:34:14Z
2020-02-08T03:36:43Z,42.805,6.029,13.2962,4.59964,2470.017,2020-2-08T05:37:17Z
2020-02-08T03:39:46Z,42.805,6.029,13.2964,4.59961,2470.03,2020-2-08T05:40:20Z
2020-02-08T03:42:49Z,42.805,6.029,13.2961,4.59962,2470.053,2020-2-08T05:43:23Z
2020-02-08T03:45:52Z,42.805,6.029,13.2963,4.59962,2470.04,2020-2-08T05:46:26Z
2020-02-08T03:48:55Z,42.805,6.029,13.2959,4.59963,2470.03,2020-2-08T05:49:30Z
2020-02-08T03:51:58Z,42.805,6.029,13.2962,4.59962,2470.04,2020-2-08T05:52:33Z
2020-02-08T03:55:02Z,42.805,6.029,13.2961,4.59963,2470.087,2020-2-08T05:55:36Z
2020-02-08T03:58:05Z,42.805,6.029,13.2964,4.59963,2470.04,2020-2-08T05:58:39Z
2020-02-08T04:01:08Z,42.805,6.029,13.2961,4.59964,2470.053,2020-2-08T06:01:42Z
2020-02-08T04:04:11Z,42.805,6.029,13.2961,4.59963,2470.077,2020-2-08T06:04:46Z
2020-02-08T04:07:14Z,42.805,6.029,13.2961,4.59963,2470.063,2020-2-08T06:07:49Z
2020-02-08T04:10:18Z,42.805,6.029,13.2961,4.59962,2470.1,2020-2-08T06:10:52Z
2020-02-08T04:13:21Z,42.805,6.029,13.2961,4.59964,2470.087,2020-2-08T06:13:55Z
2020-02-08T04:16:24Z,42.805,6.029,13.2964,4.59965,2470.087,2020-2-08T06:16:58Z
2020-02-08T04:19:27Z,42.805,6.029,13.2964,4.59963,2470.11,2020-2-08T06:20:02Z
2020-02-08T04:22:30Z,42.805,6.029,13.2962,4.59963,2470.077,2020-2-08T06:23:05Z
2020-02-08T04:25:34Z,42.805,6.029,13.2966,4.59966,2470.077,2020-2-08T06:26:08Z
2020-02-08T04:28:37Z,42.805,6.029,13.2964,4.59964,2470.087,2020-2-08T06:29:11Z
2020-02-08T04:31:40Z,42.805,6.029,13.2964,4.59964,2470.087,2020-2-08T06:32:14Z
2020-02-08T04:34:43Z,42.805,6.029,13.2961,4.59968,2470.11,2020-2-08T06:35:17Z
2020-02-08T04:37:46Z,42.805,6.029,13.2966,4.59963,2470.11,2020-2-08T06:38:21Z
2020-02-08T04:40:49Z,42.805,6.029,13.2963,4.59962,2470.11,2020-2-08T06:41:24Z
2020-02-08T04:43:53Z,42.805,6.029,13.2961,4.59964,2470.11,2020-2-08T06:44:27Z
2020-02-08T04:46:56Z,42.805,6.029,13.2962,4.59966,2470.11,2020-2-08T06:47:30Z
2020-02-08T04:49:59Z,42.805,6.029,13.2962,4.59964,2470.147,2020-2-08T06:50:33Z
2020-02-08T04:53:02Z,42.805,6.029,13.2964,4.59964,2470.124,2020-2-08T06:53:37Z
2020-02-08T04:56:05Z,42.805,6.029,13.2963,4.59962,2470.133,2020-2-08T06:56:40Z
2020-02-08T04:59:09Z,42.805,6.029,13.2964,4.59965,2470.133,2020-2-08T06:59:43Z
2020-02-08T05:02:12Z,42.805,6.029,13.2966,4.59963,2470.11,2020-2-08T07:02:46Z
2020-02-08T05:05:15Z,42.805,6.029,13.2958,4.59964,2470.133,2020-2-08T07:05:49Z
2020-02-08T05:08:18Z,42.805,6.029,13.2962,4.59961,2470.147,2020-2-08T07:08:52Z
2020-02-08T05:11:21Z,42.805,6.029,13.2963,4.59963,2470.11,2020-2-08T07:11:56Z
2020-02-08T05:14:25Z,42.805,6.029,13.2964,4.59966,2470.133,2020-2-08T07:14:59Z
2020-02-08T05:17:28Z,42.805,6.029,13.2962,4.59964,2470.133,2020-2-08T07:18:02Z
2020-02-08T05:20:31Z,42.805,6.029,13.2962,4.59963,2470.147,2020-2-08T07:21:05Z
2020-02-08T05:23:34Z,42.805,6.029,13.2964,4.59963,2470.147,2020-2-08T07:24:08Z
2020-02-08T05:26:37Z,42.805,6.029,13.2961,4.59964,2470.171,2020-2-08T07:27:12Z
2020-02-08T05:29:40Z,42.805,6.029,13.2964,4.59963,2470.11,2020-2-08T07:30:15Z
2020-02-08T05:32:44Z,42.805,6.029,13.2961,4.59964,2470.194,2020-2-08T07:33:18Z
2020-02-08T05:35:47Z,42.805,6.029,13.2962,4.59964,2470.156,2020-2-08T07:36:21Z
2020-02-08T05:38:50Z,42.805,6.029,13.2962,4.59964,2470.147,2020-2-08T07:39:24Z
2020-02-08T05:41:53Z,42.805,6.029,13.2966,4.59962,2470.147,2020-2-08T07:42:28Z
2020-02-08T05:44:57Z,42.805,6.029,13.2963,4.59964,2470.156,2020-2-08T07:45:31Z
2020-02-08T05:48:00Z,42.805,6.029,13.2960,4.59963,2470.171,2020-2-08T07:48:34Z
2020-02-08T05:51:03Z,42.805,6.029,13.2965,4.59961,2470.171,2020-2-08T07:51:38Z
2020-02-08T05:54:06Z,42.805,6.029,13.2961,4.59962,2470.156,2020-2-08T07:54:41Z
2020-02-08T05:57:10Z,42.805,6.029,13.2963,4.59961,2470.171,2020-2-08T07:57:44Z
2020-02-08T06:00:13Z,42.805,6.029,13.2960,4.59964,2470.18,2020-2-08T08:00:47Z
2020-02-08T06:03:16Z,42.805,6.029,13.2966,4.59963,2470.217,2020-2-08T08:03:50Z
2020-02-08T06:06:19Z,42.805,6.029,13.2958,4.59966,2470.133,2020-2-08T08:06:54Z
2020-02-08T06:09:22Z,42.805,6.029,13.2960,4.59966,2470.194,2020-2-08T08:09:57Z
2020-02-08T06:12:26Z,42.805,6.029,13.2970,4.59963,2470.171,2020-2-08T08:13:00Z
2020-02-08T06:15:29Z,42.805,6.029,13.2961,4.59964,2470.133,2020-2-08T08:16:03Z
2020-02-08T06:18:32Z,42.805,6.029,13.2963,4.59964,2470.156,2020-2-08T08:19:06Z
2020-02-08T06:21:35Z,42.805,6.029,13.2964,4.59961,2470.18,2020-2-08T08:22:10Z
2020-02-08T06:24:38Z,42.805,6.029,13.2964,4.59962,2470.18,2020-2-08T08:25:13Z
2020-02-08T06:27:42Z,42.805,6.029,13.2961,4.59961,2470.156,2020-2-08T08:28:16Z
2020-02-08T06:30:45Z,42.805,6.029,13.2963,4.59961,2470.217,2020-2-08T08:31:19Z
2020-02-08T06:33:48Z,42.805,6.029,13.2960,4.59962,2470.18,2020-2-08T08:34:22Z
2020-02-08T06:36:51Z,42.805,6.029,13.2964,4.59963,2470.18,2020-2-08T08:37:26Z
2020-02-08T06:39:54Z,42.805,6.029,13.2959,4.59966,2470.156,2020-2-08T08:40:29Z
2020-02-08T06:42:58Z,42.805,6.029,13.2958,4.59964,2470.133,2020-2-08T08:43:32Z
2020-02-08T06:46:01Z,42.805,6.029,13.2960,4.59963,2470.156,2020-2-08T08:46:35Z
2020-02-08T06:49:04Z,42.805,6.029,13.2962,4.59964,2470.203,2020-2-08T08:49:38Z
2020-02-08T06:52:07Z,42.805,6.029,13.2960,4.59966,2470.203,2020-2-08T08:52:41Z
2020-02-08T06:55:10Z,42.805,6.029,13.2961,4.59963,2470.18,2020-2-08T08:55:45Z
2020-02-08T06:58:14Z,42.805,6.029,13.2963,4.59966,2470.18,2020-2-08T08:58:48Z
2020-02-08T07:01:17Z,42.805,6.029,13.2961,4.59962,2470.156,2020-2-08T09:01:51Z
2020-02-08T07:04:20Z,42.805,6.029,13.2966,4.59962,2470.203,2020-2-08T09:04:54Z
2020-02-08T07:07:23Z,42.805,6.029,13.2964,4.59962,2470.203,2020-2-08T09:07:57Z
2020-02-08T07:10:26Z,42.805,6.029,13.2963,4.59962,2470.18,2020-2-08T09:11:01Z
2020-02-08T07:13:29Z,42.805,6.029,13.2965,4.59964,2470.18,2020-2-08T09:14:04Z
2020-02-08T07:16:33Z,42.805,6.029,13.2965,4.59970,2470.156,2020-2-08T09:17:07Z
2020-02-08T07:19:36Z,42.805,6.029,13.2964,4.59965,2470.194,2020-2-08T09:20:10Z
2020-02-08T07:22:39Z,42.805,6.029,13.2964,4.59963,2470.156,2020-2-08T09:23:13Z
2020-02-08T07:25:42Z,42.805,6.029,13.2964,4.59962,2470.18,2020-2-08T09:26:16Z
2020-02-08T07:28:46Z,42.805,6.029,13.2961,4.59962,2470.18,2020-2-08T09:29:20Z
2020-02-08T07:31:49Z,42.805,6.029,13.2960,4.59962,2470.217,2020-2-08T09:32:23Z
2020-02-08T07:34:52Z,42.805,6.029,13.2962,4.59961,2470.217,2020-2-08T09:35:26Z
2020-02-08T07:37:55Z,42.805,6.029,13.2963,4.59962,2470.24,2020-2-08T09:38:30Z
2020-02-08T07:40:58Z,42.805,6.029,13.2961,4.59964,2470.143,2020-2-08T09:41:33Z
2020-02-08T07:44:02Z,42.805,6.029,13.2962,4.59963,2470.156,2020-2-08T09:44:36Z
2020-02-08T07:47:05Z,42.805,6.029,13.2964,4.59963,2470.18,2020-2-08T09:47:39Z
2020-02-08T07:50:08Z,42.805,6.029,13.2958,4.59962,2470.18,2020-2-08T09:50:42Z
2020-02-08T07:53:11Z,42.805,6.029,13.2964,4.59964,2470.217,2020-2-08T09:53:45Z
2020-02-08T07:56:14Z,42.805,6.029,13.2961,4.59963,2470.156,2020-2-08T09:56:49Z
2020-02-08T07:59:17Z,42.805,6.029,13.2960,4.59964,2470.171,2020-2-08T09:59:52Z
2020-02-08T08:02:21Z,42.805,6.029,13.2964,4.59962,2470.18,2020-2-08T10:02:55Z
2020-02-08T08:05:24Z,42.805,6.029,13.2961,4.59963,2470.217,2020-2-08T10:05:58Z
2020-02-08T08:08:27Z,42.805,6.029,13.2961,4.59963,2470.147,2020-2-08T10:09:01Z
2020-02-08T08:11:30Z,42.805,6.029,13.2963,4.59963,2470.18,2020-2-08T10:12:05Z
2020-02-08T08:14:33Z,42.805,6.029,13.2965,4.59963,2470.194,2020-2-08T10:15:08Z
2020-02-08T08:17:37Z,42.805,6.029,13.2961,4.59964,2470.194,2020-2-08T10:18:11Z
2020-02-08T08:20:40Z,42.805,6.029,13.2961,4.59962,2470.18,2020-2-08T10:21:14Z
2020-02-08T08:23:43Z,42.805,6.029,13.2958,4.59963,2470.171,2020-2-08T10:24:17Z
2020-02-08T08:26:46Z,42.805,6.029,13.2964,4.59963,2470.18,2020-2-08T10:27:21Z
2020-02-08T08:29:49Z,42.805,6.029,13.2964,4.59962,2470.156,2020-2-08T10:30:24Z
2020-02-08T08:32:53Z,42.805,6.029,13.2963,4.59962,2470.156,2020-2-08T10:33:27Z
2020-02-08T08:35:56Z,42.805,6.029,13.2958,4.59966,2470.171,2020-2-08T10:36:30Z
2020-02-08T08:38:59Z,42.805,6.029,13.2958,4.59962,2470.194,2020-2-08T10:39:33Z
2020-02-08T08:42:02Z,42.805,6.029,13.2964,4.59961,2470.156,2020-2-08T10:42:37Z
2020-02-08T08:45:05Z,42.805,6.029,13.2964,4.59962,2470.156,2020-2-08T10:45:40Z
2020-02-08T08:48:09Z,42.805,6.029,13.2964,4.59964,2470.147,2020-2-08T10:48:43Z
2020-02-08T08:51:12Z,42.805,6.029,13.2964,4.59966,2470.171,2020-2-08T10:51:46Z
2020-02-08T08:54:15Z,42.805,6.029,13.2961,4.59964,2470.147,2020-2-08T10:54:49Z
2020-02-08T08:57:18Z,42.805,6.029,13.2964,4.59963,2470.11,2020-2-08T10:57:53Z
2020-02-08T09:00:21Z,42.805,6.029,13.2965,4.59963,2470.133,2020-2-08T11:00:56Z
2020-02-08T09:03:25Z,42.805,6.029,13.2959,4.59963,2470.156,2020-2-08T11:03:59Z
2020-02-08T09:06:28Z,42.805,6.029,13.2963,4.59963,2470.156,2020-2-08T11:07:02Z
2020-02-08T09:09:31Z,42.805,6.029,13.2961,4.59966,2470.133,2020-2-08T11:10:05Z
2020-02-08T09:12:34Z,42.805,6.029,13.2958,4.59963,2470.133,2020-2-08T11:13:09Z
2020-02-08T09:15:37Z,42.805,6.029,13.2963,4.59964,2470.156,2020-2-08T11:16:12Z
2020-02-08T09:18:41Z,42.805,6.029,13.2964,4.59963,2470.124,2020-2-08T11:19:15Z
2020-02-08T09:21:44Z,42.805,6.029,13.2960,4.59963,2470.171,2020-2-08T11:22:18Z
2020-02-08T09:24:47Z,42.805,6.029,13.2964,4.59962,2470.147,2020-2-08T11:25:21Z
2020-02-08T09:27:50Z,42.805,6.029,13.2964,4.59963,2470.11,2020-2-08T11:28:24Z
2020-02-08T09:30:53Z,42.805,6.029,13.2963,4.59964,2470.147,2020-2-08T11:31:28Z
2020-02-08T09:33:57Z,42.805,6.029,13.2964,4.59964,2470.124,2020-2-08T11:34:31Z
2020-02-08T09:37:00Z,42.805,6.029,13.2964,4.59964,2470.133,2020-2-08T11:37:34Z
2020-02-08T09:40:03Z,42.805,6.029,13.2964,4.59963,2470.11,2020-2-08T11:40:37Z
2020-02-08T09:43:06Z,42.805,6.029,13.2964,4.59964,2470.11,2020-2-08T11:43:41Z
2020-02-08T09:46:09Z,42.805,6.029,13.2958,4.59966,2470.11,2020-2-08T11:46:44Z
2020-02-08T09:49:13Z,42.805,6.029,13.2964,4.59962,2470.11,2020-2-08T11:49:47Z
2020-02-08T09:52:16Z,42.805,6.029,13.2963,4.59963,2470.11,2020-2-08T11:52:50Z
2020-02-08T09:55:19Z,42.805,6.029,13.2964,4.59964,2470.11,2020-2-08T11:55:53Z
2020-02-08T09:58:22Z,42.805,6.029,13.2964,4.59961,2470.11,2020-2-08T11:58:57Z
2020-02-08T10:01:25Z,42.805,6.029,13.2963,4.59963,2470.133,2020-2-08T12:02:00Z
2020-02-08T10:04:29Z,42.805,6.029,13.2964,4.59963,2470.1,2020-2-08T12:05:03Z
2020-02-08T10:07:32Z,42.805,6.029,13.2960,4.59964,2470.087,2020-2-08T12:08:06Z
2020-02-08T10:10:35Z,42.805,6.029,13.2961,4.59971,2470.087,2020-2-08T12:11:09Z
2020-02-08T10:13:38Z,42.805,6.029,13.2966,4.59963,2470.1,2020-2-08T12:14:12Z
2020-02-08T10:16:41Z,42.805,6.029,13.2965,4.59966,2470.087,2020-2-08T12:17:16Z
2020-02-08T10:19:45Z,42.805,6.029,13.2964,4.59968,2470.124,2020-2-08T12:20:19Z
2020-02-08T10:22:48Z,42.805,6.029,13.2961,4.59966,2470.087,2020-2-08T12:23:22Z
2020-02-08T10:25:51Z,42.805,6.029,13.2964,4.59964,2470.133,2020-2-08T12:26:25Z
2020-02-08T10:28:54Z,42.805,6.029,13.2963,4.59962,2470.087,2020-2-08T12:29:28Z
2020-02-08T10:31:58Z,42.805,6.029,13.2962,4.59962,2470.124,2020-2-08T12:32:32Z
2020-02-08T10:35:01Z,42.805,6.029,13.2963,4.59962,2470.087,2020-2-08T12:35:35Z
2020-02-08T10:38:04Z,42.805,6.029,13.2962,4.59962,2470.063,2020-2-08T12:38:38Z
2020-02-08T10:41:07Z,42.805,6.029,13.2965,4.59964,2470.087,2020-2-08T12:41:41Z
2020-02-08T10:44:10Z,42.805,6.029,13.2967,4.59963,2470.063,2020-2-08T12:44:45Z
2020-02-08T10:47:14Z,42.805,6.029,13.2965,4.59964,2470.063,2020-2-08T12:47:48Z
2020-02-08T10:50:17Z,42.805,6.029,13.2965,4.59965,2470.087,2020-2-08T12:50:51Z
2020-02-08T10:53:20Z,42.805,6.029,13.2963,4.59969,2470.1,2020-2-08T12:53:54Z
2020-02-08T10:56:23Z,42.805,6.029,13.2961,4.59968,2470.087,2020-2-08T12:56:57Z
2020-02-08T10:59:26Z,42.805,6.029,13.2974,4.59964,2470.063,2020-2-08T13:00:01Z
2020-02-08T11:02:29Z,42.805,6.029,13.2964,4.59961,2470.063,2020-2-08T13:03:04Z
2020-02-08T11:05:33Z,42.805,6.029,13.2961,4.59963,2470.063,2020-2-08T13:06:07Z
2020-02-08T11:08:36Z,42.805,6.029,13.2959,4.59964,2470.087,2020-2-08T13:09:10Z
2020-02-08T11:11:39Z,42.805,6.029,13.2964,4.59963,2470.077,2020-2-08T13:12:13Z
2020-02-08T11:14:42Z,42.805,6.029,13.2964,4.59964,2470.03,2020-2-08T13:15:17Z
2020-02-08T11:17:46Z,42.805,6.029,13.2964,4.59964,2470.04,2020-2-08T13:18:20Z
2020-02-08T11:20:49Z,42.805,6.029,13.2964,4.59964,2470.04,2020-2-08T13:21:23Z
2020-02-08T11:23:52Z,42.805,6.029,13.2965,4.59964,2470.063,2020-2-08T13:24:26Z
2020-02-08T11:26:55Z,42.805,6.029,13.2968,4.59963,2470.017,2020-2-08T13:27:29Z
2020-02-08T11:29:58Z,42.805,6.029,13.2965,4.59967,2470.03,2020-2-08T13:30:33Z
2020-02-08T11:33:02Z,42.805,6.029,13.2967,4.59966,2470.1,2020-2-08T13:33:36Z
2020-02-08T11:36:05Z,42.805,6.029,13.2963,4.59966,2470.017,2020-2-08T13:36:39Z
2020-02-08T11:39:08Z,42.805,6.029,13.2962,4.59966,2470.053,2020-2-08T13:39:42Z
2020-02-08T11:42:11Z,42.805,6.029,13.2968,4.59963,2470.04,2020-2-08T13:42:46Z
2020-02-08T11:45:15Z,42.805,6.029,13.2962,4.59966,2470.04,2020-2-08T13:45:49Z
2020-02-08T11:48:18Z,42.805,6.029,13.2961,4.59965,2470.017,2020-2-08T13:48:52Z
2020-02-08T11:51:21Z,42.805,6.029,13.2964,4.59963,2470.017,2020-2-08T13:51:55Z
2020-02-08T11:54:24Z,42.805,6.029,13.2963,4.59964,2470.017,2020-2-08T13:54:59Z
2020-02-08T11:57:27Z,42.805,6.029,13.2967,4.59968,2470.03,2020-2-08T13:58:02Z
2020-02-08T12:00:31Z,42.805,6.029,13.2968,4.59963,2470.017,2020-2-08T14:01:05Z
2020-02-08T12:03:34Z,42.805,6.029,13.2964,4.59962,2470.04,2020-2-08T14:04:08Z
2020-02-08T12:06:37Z,42.805,6.029,13.2967,4.59963,2470.017,2020-2-08T14:07:11Z
2020-02-08T12:09:40Z,42.805,6.029,13.2964,4.59968,2470.077,2020-2-08T14:10:14Z
2020-02-08T12:12:43Z,42.805,6.029,13.2963,4.59964,2470.03,2020-2-08T14:13:18Z
2020-02-08T12:15:47Z,42.805,6.029,13.2963,4.59964,2469.993,2020-2-08T14:16:21Z
2020-02-08T12:18:50Z,42.805,6.029,13.2963,4.59964,2469.96,2020-2-08T14:19:24Z
2020-02-08T12:21:53Z,42.805,6.029,13.2963,4.59963,2470.007,2020-2-08T14:22:27Z
2020-02-08T12:24:56Z,42.805,6.029,13.2964,4.59966,2469.993,2020-2-08T14:25:31Z
2020-02-08T12:27:59Z,42.805,6.029,13.2964,4.59964,2470.017,2020-2-08T14:28:34Z
2020-02-08T12:31:03Z,42.805,6.029,13.2961,4.59963,2469.993,2020-2-08T14:31:37Z
2020-02-08T12:34:06Z,42.805,6.029,13.2959,4.59963,2470.03,2020-2-08T14:34:40Z
2020-02-08T12:37:09Z,42.805,6.029,13.2962,4.59962,2469.97,2020-2-08T14:37:43Z
2020-02-08T12:40:12Z,42.805,6.029,13.2962,4.59964,2470.017,2020-2-08T14:40:46Z
2020-02-08T12:43:15Z,42.805,6.029,13.2959,4.59964,2469.993,2020-2-08T14:43:50Z
2020-02-08T12:46:18Z,42.805,6.029,13.2961,4.59964,2469.979,2020-2-08T14:46:53Z
2020-02-08T12:49:22Z,42.805,6.029,13.2964,4.59968,2470.017,2020-2-08T14:49:56Z
2020-02-08T12:52:25Z,42.805,6.029,13.2961,4.59966,2470.007,2020-2-08T14:52:59Z
2020-02-08T12:55:28Z,42.805,6.029,13.2963,4.59964,2469.984,2020-2-08T14:56:02Z
2020-02-08T12:58:31Z,42.805,6.029,13.2961,4.59964,2470.007,2020-2-08T14:59:06Z
2020-02-08T13:01:34Z,42.805,6.029,13.2964,4.59962,2470.017,2020-2-08T15:02:09Z
2020-02-08T13:04:38Z,42.805,6.029,13.2965,4.59966,2469.984,2020-2-08T15:05:12Z
2020-02-08T13:07:41Z,42.805,6.029,13.2964,4.59962,2470.007,2020-2-08T15:08:15Z
2020-02-08T13:10:44Z,42.805,6.029,13.2957,4.59968,2469.993,2020-2-08T15:11:18Z
2020-02-08T13:13:47Z,42.805,6.029,13.2961,4.59964,2469.947,2020-2-08T15:14:22Z
2020-02-08T13:16:50Z,42.805,6.029,13.2961,4.59963,2469.97,2020-2-08T15:17:25Z
2020-02-08T13:19:54Z,42.805,6.029,13.2962,4.59965,2469.97,2020-2-08T15:20:28Z
2020-02-08T13:22:57Z,42.805,6.029,13.2961,4.59965,2469.947,2020-2-08T15:23:31Z
2020-02-08T13:26:00Z,42.805,6.029,13.2964,4.59966,2469.993,2020-2-08T15:26:34Z
2020-02-08T13:29:03Z,42.805,6.029,13.2962,4.59963,2469.97,2020-2-08T15:29:38Z
2020-02-08T13:32:06Z,42.805,6.029,13.2961,4.59964,2469.97,2020-2-08T15:32:41Z
2020-02-08T13:35:10Z,42.805,6.029,13.2963,4.59968,2469.984,2020-2-08T15:35:44Z
2020-02-08T13:38:13Z,42.805,6.029,13.2958,4.59964,2469.97,2020-2-08T15:38:47Z
2020-02-08T13:41:16Z,42.805,6.029,13.2963,4.59965,2469.97,2020-2-08T15:41:50Z
2020-02-08T13:44:19Z,42.805,6.029,13.2964,4.59964,2469.97,2020-2-08T15:44:54Z
2020-02-08T13:47:23Z,42.805,6.029,13.2960,4.59964,2469.947,2020-2-08T15:47:57Z
2020-02-08T13:50:26Z,42.805,6.029,13.2959,4.59968,2469.947,2020-2-08T15:51:00Z
2020-02-08T13:53:29Z,42.805,6.029,13.2961,4.59968,2469.984,2020-2-08T15:54:03Z
2020-02-08T13:56:32Z,42.805,6.029,13.2962,4.59963,2469.923,2020-2-08T15:57:06Z
2020-02-08T13:59:35Z,42.805,6.029,13.2964,4.59965,2469.97,2020-2-08T16:00:10Z
2020-02-08T14:02:38Z,42.805,6.029,13.2963,4.59966,2469.993,2020-2-08T16:03:13Z
2020-02-08T14:05:42Z,42.805,6.029,13.2964,4.59966,2469.97,2020-2-08T16:06:16Z
2020-02-08T14:08:45Z,42.805,6.029,13.2964,4.59964,2469.97,2020-2-08T16:09:19Z
2020-02-08T14:11:48Z,42.805,6.029,13.2958,4.59963,2469.97,2020-2-08T16:12:22Z
2020-02-08T14:14:51Z,42.805,6.029,13.2961,4.59967,2469.984,2020-2-08T16:15:26Z
2020-02-08T14:17:54Z,42.805,6.029,13.2960,4.59966,2469.97,2020-2-08T16:18:29Z
2020-02-08T14:20:58Z,42.805,6.029,13.2958,4.59968,2469.97,2020-2-08T16:21:32Z
2020-02-08T14:24:01Z,42.805,6.029,13.2962,4.59966,2469.993,2020-2-08T16:24:35Z
2020-02-08T14:27:04Z,42.805,6.029,13.2964,4.59964,2469.984,2020-2-08T16:27:39Z
2020-02-08T14:30:07Z,42.805,6.029,13.2961,4.59964,2469.984,2020-2-08T16:30:42Z
2020-02-08T14:33:11Z,42.805,6.029,13.2961,4.59964,2469.947,2020-2-08T16:33:45Z
2020-02-08T14:36:14Z,42.805,6.029,13.2962,4.59964,2469.984,2020-2-08T16:36:48Z
2020-02-08T14:39:17Z,42.805,6.029,13.2964,4.59965,2470.007,2020-2-08T16:39:51Z
2020-02-08T14:42:20Z,42.805,6.029,13.2967,4.59968,2470.007,2020-2-08T16:42:54Z
2020-02-08T14:45:23Z,42.805,6.029,13.2962,4.59966,2469.993,2020-2-08T16:45:58Z
2020-02-08T14:48:27Z,42.805,6.029,13.2967,4.59966,2470.017,2020-2-08T16:49:01Z
2020-02-08T14:51:30Z,42.805,6.029,13.2964,4.59964,2469.947,2020-2-08T16:52:04Z
2020-02-08T14:54:33Z,42.805,6.029,13.2968,4.59962,2469.984,2020-2-08T16:55:07Z
2020-02-08T14:57:36Z,42.805,6.029,13.2964,4.59964,2470.007,2020-2-08T16:58:11Z
2020-02-08T15:00:39Z,42.805,6.029,13.2964,4.59964,2469.993,2020-2-08T17:01:14Z
2020-02-08T15:03:43Z,42.805,6.029,13.2965,4.59963,2469.993,2020-2-08T17:04:17Z
2020-02-08T15:06:46Z,42.805,6.029,13.2964,4.59966,2470.003,2020-2-08T17:07:20Z
2020-02-08T15:09:49Z,42.805,6.029,13.2961,4.59964,2470.007,2020-2-08T17:10:23Z
2020-02-08T15:12:52Z,42.805,6.029,13.2961,4.59964,2470.017,2020-2-08T17:13:27Z
2020-02-08T15:15:56Z,42.805,6.029,13.2964,4.59965,2470.017,2020-2-08T17:16:30Z